カタログに戻る

STARLINK-37812

運用中通信VLEO
NORAD 100293·PAYLOAD·🇺🇸 United States

打ち上げ Aug 11, 2026 から Cape Canaveral Space Force Station

Loading…

次のパス (今後24時間)

TLE

古いSource: Space-Track

元期: Sep 8, 2026, 21:29 UTC

1 A0293U 26183X   26251.89539494  .00312711  00000-0  19848-2 0  9998
2 A0293  53.1587 314.3924 0003899 358.7086   1.3923 15.75059437  4487

AllMySatでSTARLINK-37812をリアルタイム追跡

Download on the App Store